Regional Weather Roundup
Issued by NWS San Angelo, TX

Home | Current Version | Previous Version | Text Only | Print | Product List | Glossary On
Versions: 1 2 3 4 5 6 7 8 9 10 11 12 13 14 15 16 17 18 19 20 21 22 23 24 25 26 27 28 29 30 31 32 33 34 35 36 37 38 39 40 41 42 43 44 45 46 47 48 49 50
000
ASUS44 KSJT 020610
RWRSJT
WEST CENTRAL TEXAS REGIONAL WEATHER ROUNDUP
NATIONAL WEATHER SERVICE SAN ANGELO TX
100 AM CDT SAT AUG 02 2014

NOTE: "FAIR" INDICATES FEW OR NO CLOUDS BELOW 12,000 FEET WITH NO
SIGNIFICANT WEATHER AND/OR OBSTRUCTIONS TO VISIBILITY.

TXZ049-054-064>066-071>073-076>078-098-099-113-114-127-128-139-140-
154-155-168>170-020700
...LOCATIONS ACROSS WEST CENTRAL TEXAS...

CITY           SKY/WX    TMP DP  RH WIND       PRES   REMARKS
SAN ANGELO     PTCLDY    75  56  51 E6        30.09R
ABILENE        CLEAR     71  61  70 SE5       30.12R
DYESS AFB      PTCLDY    73  60  65 SE3       30.11R
JUNCTION       PTCLDY    76  61  59 E6        30.08R
SWEETWATER     PTCLDY    74  59  59 E5        30.17R
BROWNWOOD      PTCLDY    72  63  73 CALM      30.09S
COLEMAN        CLEAR     72  59  63 CALM      30.10F
SONORA         PTCLDY    81  57  44 E8        30.13S
OZONA          FAIR      75  54  46 NE7       30.13S
BRADY          CLEAR     72  63  73 E5        30.09S
$$

TEXAS PANHANDLE/OKLAHOMA PANHANDLE

CITY           SKY/WX    TMP DP  RH WIND       PRES   REMARKS
AMARILLO       CLEAR     64  54  69 SW6       30.22S
BORGER         PTCLDY    72  57  59 W3        30.19R
CANADIAN       PTCLDY    70  65  84 SW5       30.14R
DALHART        MOCLDY    66  55  67 S8        30.25R
DUMAS          PTCLDY    69  51  54 SW8       30.22S
GUYMON         NOT AVBL
HEREFORD       CLEAR     63  56  80 CALM      30.24S
PAMPA          PTCLDY    67  57  70 SW8       30.21R
PERRYTON       MOCLDY    67  60  79 S3        30.17S
$$

SOUTHERN PANHANDLE/SOUTH PLAINS/ROLLING PLAINS

CITY           SKY/WX    TMP DP  RH WIND       PRES   REMARKS
LUBBOCK        CLOUDY    71  49  45 E5        30.19S
SNYDER         PTCLDY    75  57  52 E8        30.15S
CHILDRESS      CLEAR     69  60  73 S5        30.14S
SEMINOLE       MOCLDY    73  50  43 E8        30.19S
$$

PERMIAN BASIN

CITY           SKY/WX    TMP DP  RH WIND       PRES   REMARKS
MIDLAND        CLEAR     75  52  44 E8        30.15R
ODESSA           N/A     72  53  51 E6        30.16R
WINK           LGT RAIN  77  66  68 CALM      30.13R
$$

FAR WEST/SOUTHWEST MOUNTAINS/TRANS PECOS

CITY           SKY/WX    TMP DP  RH WIND       PRES   REMARKS
ALPINE         MOCLDY    67  60  77 CALM      30.27F
DRYDEN           N/A     82  60  47 N9        30.06S
EL PASO        CLOUDY    72  63  73 NE6       30.16R
FORT STOCKTON  CLOUDY    74  61  63 SE3       30.14S
GUADALUPE PASS CLOUDY    65  57  75 NE30      30.27R
MARFA          MOCLDY    64  59  82 N5        30.24F
PECOS          CLOUDY    77  60  56 NW3       30.13R
$$

DALLAS/FORT WORTH METROPLEX

CITY           SKY/WX    TMP DP  RH WIND       PRES   REMARKS
DFW AIRPORT    PTCLDY    72  66  81 CALM      30.06S
FTW MEACHAM    CLEAR     72  66  81 NE3       30.06S
DAL-EXECUTIVE  CLEAR     72  65  78 CALM      30.06S
GRAND PRAIRIE  PTCLDY    71  64  80 CALM      30.08S
ADDISON        CLEAR     72  65  80 CALM      30.08F
MESQUITE       CLEAR     68  67  94 CALM      30.06S
LANCASTER      CLEAR     67  62  86 N3        30.07S
$$

NORTH CENTRAL TEXAS

CITY           SKY/WX    TMP DP  RH WIND       PRES   REMARKS
SHRMAN/DENISON CLEAR     67  65  91 CALM      30.08S
GAINESVILLE    CLEAR     68  66  93 CALM      30.10S
BRIDGEPORT     CLEAR     65  64  97 CALM      30.10S
DENTON         CLEAR     67  66  97 CALM      30.07S
WAXAHACHIE     PTCLDY    70  64  82 N3        30.07S HAZE
GRANBURY       CLEAR     70  64  82 CALM      30.09S
$$

WESTERN NORTH TEXAS

CITY           SKY/WX    TMP DP  RH WIND       PRES   REMARKS
WICHITA FALLS  CLEAR     68  65  90 SE6       30.08S
VERNON         CLEAR     71  65  81 S3        30.11S
BRECKENRIDGE   CLEAR     73  62  68 E6        30.09S
COMANCHE       PTCLDY    68  63  84 E3        30.10S
$$

CENTRAL AND SOUTH CENTRAL TEXAS

CITY           SKY/WX    TMP DP  RH WIND       PRES   REMARKS
AUSTIN/BERGSTM PTCLDY    73  67  81 NE3       30.04R
WACO           CLOUDY    74  66  76 N5        30.04F
HILLSBORO      CLOUDY    72  65  79 N5        30.05F
TEMPLE         CLOUDY    73  64  73 NE3       30.03S
KILLEEN-GRAY   PTCLDY    73  66  78 N7        30.06S
FORT HOOD      PTCLDY    74  66  76 NE3       30.05F
GEORGETOWN     CLEAR     72  66  83 CALM      30.06R
LAGO VISTA     FAIR      73  66  80 E6        30.08R
SAN MARCOS     CLEAR     72  63  73 NE6       30.06R
NEW BRAUNFELS  CLEAR     74  65  73 E5        30.02R
RANDOLPH AFB   PTCLDY    76  64  66 NE10      30.03S
SAN ANTONIO    PTCLDY    79  65  62 NE12      30.04R
STINSON        CLEAR     80  65  59 NE8       30.01R
PLEASANTON     NOT AVBL
LA GRANGE      CLEAR     74  70  89 CALM      30.01S
GIDDINGS       CLEAR     71  67  86 CALM      30.07S
$$

EAST TEXAS

CITY           SKY/WX    TMP DP  RH WIND       PRES   REMARKS
PARIS          MOCLDY    68  63  83 NE6       30.07S
CLARKSVILLE    CLEAR     70  68  94 CALM      30.06S
TYLER          MOCLDY    70  66  88 N3        30.02F
LONGVIEW       CLOUDY    70  66  87 NE6       30.01F
PALESTINE      NOT AVBL
NACOGDOCHES    CLOUDY    70  68  94 N5        30.00F
$$

TEXAS HILL COUNTRY AND EDWARDS PLATEAU

CITY           SKY/WX    TMP DP  RH WIND       PRES   REMARKS
LLANO          PTCLDY    73  64  73 E5        30.10R
HORSESHOE BAY  FAIR      73  64  72 CALM      30.07R
KERRVILLE      CLEAR     74  63  68 CALM      30.08S
FREDERICKSBRG  CLEAR     72  61  67 CALM      30.09R
ROCKSPRINGS    CLOUDY    79  59  50 E7        30.11S
HONDO          PTCLDY    78  63  59 E9        30.05R
UVALDE         CLOUDY    82  63  52 E8        30.03R
DEL RIO        CLOUDY    84  67  56 CALM      29.99S
$$

SOUTHEAST TEXAS

CITY           SKY/WX    TMP DP  RH WIND       PRES   REMARKS
COLLEGE STN    CLEAR     71  68  90 N7        30.02F
CALDWELL       CLEAR     70  68  94 CALM      30.06S
CROCKETT       MOCLDY    72  72 100 CALM      30.04S FOG
BRENHAM        CLEAR     70  67  92 CALM      30.02F FOG
HUNTSVILLE     PTCLDY    71  68  90 N3        30.01F
CONROE         CLOUDY    73  68  84 N5        30.00F
HOUSTON BUSH   CLOUDY    74  69  85 N6        29.99S
HOUSTON HOBBY  PTCLDY    74  69  85 N7        29.98S
PERLAND        CLEAR     76  69  79 N8        29.99S
WHARTON        CLEAR     73  69  88 N5        30.00S
$$

THE UPPER TEXAS COAST

CITY           SKY/WX    TMP DP  RH WIND       PRES   REMARKS
ORANGE           N/A     72  72 100 N3        29.98S FOG
PORT ARTHUR    PTCLDY    73  69  87 N7        29.96S FOG
GALVESTON      PTCLDY    78  71  79 N14       29.98R
ANGLETON       MOCLDY    76  70  82 N7        29.98R
BAY CITY       MOCLDY    78  72  82 N7        29.97F
$$

TEXAS COASTAL BEND, RIO GRANDE PLAINS DEEP SOUTH TEXAS

CITY           SKY/WX    TMP DP  RH WIND       PRES   REMARKS
VICTORIA       MOCLDY    80  71  74 NE8       29.99S
BEEVILLE       FAIR      78  73  84 CALM      29.98S
ROCKPORT       CLOUDY    84  77  79 CALM      29.96S
PORT ARANSAS   CLOUDY    81  77  88 CALM      29.96F
PORT LAVACA    CLOUDY    79  72  78 N8        29.97F
CORPUS CHRISTI MOCLDY    81  76  84 SE6       29.96F
KINGSVILLE NAS CLOUDY    82  78  88 SE5       29.96S
COTULLA        CLOUDY    81  71  71 E5        29.98F
LAREDO         CLOUDY    78  75  90 S5        30.01S
BROWNSVILLE    MOCLDY    79  77  94 SE7       29.95F
PORT ISABEL    MOCLDY    83  76  79 SE8       29.95S
HEBBRONVILLE   LGT RAIN  76  73  91 CALM      29.99F
MCALLEN        MOCLDY    82  75  78 SE8       29.96R
WESLACO        MOCLDY    82  74  77 SE6       29.95S
FALFURRIAS     CLOUDY    74  69  84 CALM      29.96R
EDINBURG       CLOUDY    83  75  75 SE3       29.96S
$$


USA.gov is the U.S. government's official web portal to all federal, state and local government web resources and services.